GFSGL_prec_cthk_000.txt.gz
RH
37 36 34 31 27 26 20 16 15 16 18 18 19 22 26 29 31 30 39 55 70 87 96 98 98 99 89 83 69 91 97 95 96 97 87 86 65 49 67 75 61 34 29
38 37 34 30 28 22 17 16 16 17 18 18 20 23 27 30 34 32 42 53 76 85 96 98 98 98 86 81 91 94 96 95 97 97 89 81 72 75 68 75 59 32 27
40 36 33 29 25 18 15 15 16 17 17 18 21 26 29 32 36 37 46 55 75 89 97 98 98 98 90 88 88 92 94 98 98 97 90 81 77 72 74 81 57 29 28
40 37 32 29 21 17 16 15 15 17 18 19 22 26 30 33 38 38 46 51 71 87 97 98 99 99 99 96 94 88 93 97 96 99 96 88 76 71 83 75 58 28 25
39 35 31 26 20 17 15 14 15 18 19 20 22 29 34 34 37 39 45 58 73 80 94 96 98 95 92 94 93 86 92 97 96 97 98 93 71 88 85 76 54 29 24
40 34 31 24 19 17 16 16 16 17 19 22 27 33 35 37 36 39 46 53 59 74 91 97 96 91 86 89 97 85 89 93 94 96 97 94 79 91 90 75 54 34 30
38 35 28 22 19 17 17 16 15 17 19 24 30 37 41 40 37 40 48 58 56 68 89 99 97 98 94 94 93 95 96 92 93 94 98 94 85 91 88 72 54 31 28
37 32 26 22 19 17 16 14 14 17 21 26 33 44 47 43 40 41 51 54 52 64 86 95 95 93 98 93 93 94 92 92 92 92 95 99 93 91 86 65 44 33 31
35 29 24 22 19 16 13 13 16 19 24 30 40 49 50 46 42 41 52 50 53 63 87 95 98 98 98 96 94 87 83 86 96 92 92 97 96 96 89 61 50 44 35
34 28 25 21 18 15 14 14 18 23 27 34 47 54 52 47 41 42 52 51 55 67 84 93 98 98 97 91 88 89 88 85 90 89 90 98 95 98 85 55 47 38 32
34 29 25 20 18 16 16 17 21 25 31 39 51 54 53 46 38 39 50 52 56 69 80 91 98 98 96 97 97 94 88 85 84 87 89 96 96 99 78 56 43 30 29
33 28 24 19 18 18 18 19 23 27 35 45 52 56 53 45 42 40 47 52 57 61 75 96 97 98 98 99 98 98 89 86 86 86 93 94 97 94 75 60 44 34 23
31 27 23 22 21 20 20 21 25 32 41 50 55 56 55 51 44 43 43 46 47 52 78 97 98 98 98 97 96 97 94 96 93 89 93 98 95 87 77 64 53 39 31
30 26 25 23 22 21 22 24 29 39 47 55 55 56 54 50 46 43 42 43 44 47 79 96 97 97 99 99 97 99 96 95 95 91 97 97 97 93 78 63 53 44 39
29 26 24 23 23 23 23 27 36 47 55 60 57 55 51 53 49 45 44 47 47 55 83 96 98 98 95 96 97 93 93 96 95 91 99 98 97 89 73 57 53 42 40
29 26 24 23 23 24 25 32 46 55 60 59 55 56 51 56 52 48 45 44 47 63 86 95 97 97 96 98 96 94 93 96 95 93 98 96 95 85 66 52 50 37 39
29 26 23 23 22 25 32 44 53 55 60 50 51 51 50 54 54 48 41 42 54 67 84 97 97 98 98 97 95 96 96 97 97 98 95 97 95 83 64 49 48 39 42
28 24 23 23 26 32 43 52 50 56 60 50 51 51 50 53 53 46 40 45 56 66 82 97 98 98 98 98 98 97 98 97 97 99 97 98 88 76 61 52 47 43 42
26 23 24 25 30 42 50 50 54 59 63 54 49 50 50 52 52 46 43 48 57 67 85 97 98 98 98 98 98 96 98 96 95 98 97 96 91 74 59 58 52 48 44
23 25 28 32 39 49 51 54 59 63 64 58 55 53 53 49 52 46 43 49 57 69 84 97 97 98 97 97 98 98 98 98 99 98 96 98 91 74 61 61 58 54 50
25 25 31 37 47 52 53 62 67 65 65 65 57 52 50 50 55 49 46 48 57 69 83 94 98 97 98 98 98 98 98 99 99 98 99 98 93 81 69 65 66 65 64
27 32 39 48 54 54 55 61 62 60 66 65 59 54 47 47 53 53 50 49 56 66 79 91 96 97 97 98 99 98 98 98 99 99 98 95 97 89 80 77 76 76 73
34 40 45 53 52 54 55 59 63 63 65 63 58 52 47 50 58 58 51 52 55 65 75 88 94 94 95 96 97 98 97 95 98 99 97 98 98 92 91 83 81 82 81
40 43 48 49 51 53 59 59 62 67 67 64 53 51 53 53 59 59 54 54 55 62 73 85 89 94 97 96 96 96 95 93 95 97 98 97 95 94 94 90 87 86 86
40 46 47 48 52 56 61 57 59 62 63 58 51 52 57 55 58 60 56 55 60 60 69 82 87 93 96 96 97 96 96 97 98 98 96 96 95 95 96 94 93 93 92
45 45 48 52 54 61 60 58 58 59 61 57 54 54 59 59 57 57 60 57 60 59 64 80 86 92 95 96 97 95 92 97 99 99 99 98 98 98 98 95 96 94 93

GFSGL_prec_cthk_003.txt.gz
RH
35 35 36 38 37 34 28 26 21 16 15 14 14 15 17 18 21 28 31 34 35 46 54 71 84 94 97 97 98 91 79 67 86 87 86 81 73 75 75 65 60 52 72
36 37 40 40 37 33 28 26 19 16 14 14 14 14 16 18 21 29 31 35 37 45 53 69 81 94 98 98 98 90 75 82 91 95 98 83 79 74 73 72 61 66 76
37 40 42 41 38 32 29 23 18 15 14 13 13 15 16 17 24 31 34 33 36 44 57 72 83 96 95 98 99 90 73 85 93 97 96 95 85 76 75 70 59 71 78
39 42 43 41 39 33 28 21 17 15 14 14 14 16 16 19 29 34 36 35 37 44 54 60 84 94 97 98 99 93 88 82 76 74 93 96 88 82 79 65 66 80 75
42 44 44 42 38 34 26 20 16 16 15 15 16 16 16 22 32 40 40 37 38 45 52 60 81 94 98 99 96 94 92 88 91 96 97 97 93 84 80 61 61 85 75
44 45 44 43 38 32 24 20 17 16 15 16 15 15 18 25 38 44 45 42 43 49 53 59 79 94 98 98 96 96 94 99 90 96 96 95 90 84 77 62 71 88 78
46 45 45 42 37 30 23 20 18 17 15 14 14 16 19 33 42 48 51 46 46 48 51 57 82 94 98 98 98 97 98 89 88 91 92 96 93 87 75 71 71 85 71
46 46 46 41 37 28 23 20 18 16 14 14 15 17 25 40 44 47 52 49 48 45 50 59 84 91 97 96 92 93 93 94 95 91 93 94 95 78 88 66 74 85 63
48 49 45 39 32 26 23 20 17 16 15 16 16 20 32 43 46 47 47 40 39 44 48 60 89 92 94 98 95 90 89 90 96 95 92 93 94 91 87 88 95 82 59
50 47 41 36 31 27 24 19 17 17 17 17 18 25 38 45 47 44 43 42 39 43 45 61 81 94 95 94 97 92 90 90 92 92 98 96 93 96 84 85 91 80 55
51 45 42 38 32 28 24 19 18 19 20 20 23 33 43 47 47 46 45 42 45 50 50 55 74 96 96 97 90 90 86 89 89 89 95 98 90 83 95 98 90 71 50
50 45 43 39 32 28 23 19 18 19 21 24 30 40 48 46 40 46 42 43 47 49 50 51 75 97 98 97 96 92 90 82 79 85 91 96 95 82 87 88 88 68 53
50 48 45 36 32 27 23 19 19 22 25 29 40 47 47 38 45 45 38 44 47 49 47 55 79 95 98 98 98 95 88 87 81 82 88 93 91 79 85 93 87 68 56
52 48 41 35 31 26 22 20 22 24 29 38 46 48 41 40 44 43 40 46 47 47 46 57 85 96 98 99 99 98 94 92 84 74 80 95 97 88 92 97 77 61 59
50 45 39 34 29 24 21 21 22 27 38 46 49 48 39 39 43 47 47 46 48 44 51 65 87 94 97 98 96 98 96 94 95 86 86 93 97 94 94 93 69 55 53
51 44 37 33 27 23 21 21 24 37 46 48 50 50 39 43 43 48 49 45 42 44 54 71 92 97 96 96 95 94 96 89 88 85 85 91 96 92 93 88 66 52 51
50 42 36 31 25 22 21 26 36 43 44 46 53 53 42 43 45 46 47 43 41 47 57 71 91 97 98 98 98 99 96 93 89 87 85 93 93 94 90 84 68 56 54
50 40 35 28 24 22 26 36 41 44 44 51 54 49 43 46 44 44 44 43 45 49 58 70 92 97 98 99 97 92 93 91 88 90 90 98 97 91 86 84 69 57 54
44 37 31 26 21 26 34 40 44 45 49 57 52 50 48 46 45 41 42 45 48 52 59 72 93 98 98 99 98 97 96 92 91 90 93 96 98 95 95 86 73 54 51
41 34 28 24 26 33 41 45 48 49 55 54 52 55 50 47 43 39 40 44 47 54 61 72 91 98 98 98 99 98 97 95 95 95 92 91 98 96 92 88 74 58 55
35 30 29 28 33 43 47 51 51 49 53 48 51 54 51 47 43 38 37 45 50 54 61 72 86 97 98 99 99 98 96 96 96 94 94 93 96 97 94 88 68 57 54
33 33 32 36 43 48 47 47 46 50 50 51 50 50 46 42 41 40 44 48 52 54 60 71 86 96 97 98 98 99 98 97 99 97 96 95 93 97 93 87 64 55 56
35 36 38 42 44 43 46 46 49 49 50 52 50 45 44 42 46 45 46 48 52 55 62 72 84 93 95 99 98 98 98 99 98 99 98 98 97 96 90 79 65 52 56
38 40 41 43 41 43 46 49 49 49 51 52 49 48 49 45 48 47 50 51 53 55 61 69 81 87 92 98 98 99 99 98 98 99 99 99 97 97 90 77 61 59 54
41 42 43 42 43 46 46 52 50 51 50 52 51 51 52 45 50 50 50 53 55 57 56 64 78 85 90 96 96 97 97 98 99 98 99 98 98 97 93 76 64 67 63
42 43 43 43 45 45 52 52 51 50 51 53 53 55 54 49 51 51 54 55 54 56 55 62 76 83 90 94 95 96 97 97 99 99 99 98 99 98 95 83 74 73 75

GFSGL_prec_cthk_006.txt.gz
RH
29 31 35 37 37 37 38 36 32 30 28 23 18 17 15 13 12 14 15 17 24 31 35 33 36 46 60 78 89 96 97 99 95 78 68 47 46 68 86 76 72 59 66
30 35 38 38 39 40 40 37 33 31 28 21 18 16 14 13 13 15 16 21 28 34 36 33 37 47 56 79 88 97 98 99 98 77 71 53 55 88 91 74 81 64 68
34 37 38 39 41 42 41 38 34 32 27 20 18 16 14 13 14 14 17 23 34 38 38 34 39 46 56 77 95 95 98 99 84 83 66 56 85 92 89 79 81 82 71
37 38 39 41 42 43 42 38 35 32 24 21 18 16 14 13 13 14 19 29 38 44 41 36 41 50 58 81 97 98 98 98 95 78 91 61 84 85 76 88 88 78 71
39 39 41 42 44 45 43 38 35 30 24 21 19 16 13 12 13 15 26 37 43 48 44 38 43 51 63 92 98 98 98 91 98 85 96 96 94 94 80 85 93 88 86
40 41 43 45 46 46 44 39 35 28 24 22 18 16 13 13 14 21 34 40 46 47 44 38 44 49 63 95 99 99 99 99 99 96 95 97 87 90 81 89 92 88 83
42 44 45 47 48 47 44 39 32 27 25 21 17 15 14 14 17 27 39 42 47 44 40 35 45 51 66 89 95 93 99 97 96 89 89 87 92 93 81 74 94 87 75
44 47 48 49 49 49 42 36 32 28 25 20 16 15 16 15 20 30 38 44 43 38 36 30 42 51 70 87 92 95 93 95 96 92 90 90 94 84 96 80 76 83 73
48 51 51 51 52 47 41 37 33 30 24 18 16 16 17 19 26 32 40 45 41 38 38 36 44 55 71 91 87 87 90 93 98 98 96 95 97 79 78 75 83 72 75
51 53 53 53 51 45 41 37 33 28 23 19 16 17 17 24 33 37 41 39 42 40 39 39 43 51 71 95 91 87 85 85 97 99 98 95 98 92 80 77 70 65 73
55 56 55 54 50 43 41 37 30 27 22 19 18 17 22 33 38 40 40 44 44 41 41 42 41 48 76 98 96 89 90 91 88 92 98 94 92 90 84 79 69 68 71
59 60 59 54 46 43 41 35 30 26 21 19 20 22 30 37 38 37 40 42 45 42 45 44 41 49 81 97 98 95 86 86 86 91 96 91 92 90 81 79 73 68 69
63 62 57 50 48 45 40 34 30 24 20 20 22 28 34 37 36 37 39 42 44 43 45 45 45 59 87 98 98 96 91 82 85 89 92 90 88 88 85 84 76 71 75
63 61 56 52 49 45 39 34 29 22 19 21 27 34 36 38 36 37 39 45 43 41 41 39 49 66 91 96 94 96 91 86 85 87 94 94 97 93 89 83 75 69 87
67 63 58 55 51 45 39 34 26 20 20 24 34 39 39 41 36 36 43 50 48 41 41 39 50 65 90 96 92 95 94 89 87 95 90 94 98 95 92 86 80 76 89
69 63 58 54 50 45 39 30 23 20 23 33 40 39 41 41 39 36 44 48 42 38 39 41 53 69 87 94 95 94 94 94 88 92 92 94 96 91 91 88 78 83 85
68 61 57 53 50 45 36 28 18 20 31 37 39 39 42 39 38 37 43 46 40 38 40 45 58 75 91 96 97 98 97 93 95 91 90 93 97 97 86 88 85 91 79
67 61 58 55 50 41 32 24 22 29 35 38 42 42 42 40 40 38 42 43 35 36 41 49 59 78 92 98 98 98 95 92 90 95 93 92 96 95 87 88 90 90 68
65 63 59 53 46 37 29 24 29 38 42 42 43 44 43 42 42 40 42 43 34 36 42 49 58 75 93 97 98 98 98 91 90 90 92 89 95 98 87 84 89 86 58
65 63 58 51 41 35 29 28 38 44 45 43 43 44 42 43 43 41 40 38 34 35 45 48 58 75 92 96 98 98 97 93 93 89 90 90 97 98 98 91 91 81 58
67 64 54 44 41 35 33 39 45 42 41 43 44 44 44 41 41 39 38 34 34 38 47 51 57 76 92 96 98 99 98 94 90 90 92 85 94 97 98 96 92 81 58
66 52 46 44 42 37 37 40 39 40 44 45 44 45 43 42 39 39 37 37 39 42 50 52 59 77 92 95 98 98 99 98 95 91 91 89 92 98 95 95 90 83 59
53 47 46 47 42 37 39 39 41 44 46 44 44 44 44 41 42 38 40 39 43 48 52 55 61 77 88 93 97 98 98 98 94 94 90 91 96 96 96 90 87 78 60
46 49 51 47 39 39 37 39 43 45 45 45 44 43 46 46 44 37 43 42 42 51 56 59 59 76 85 90 97 99 98 97 94 92 92 94 95 96 97 94 92 82 67
57 54 50 41 38 39 40 42 47 45 46 45 44 46 46 47 44 39 42 45 47 54 57 61 60 75 84 89 96 98 96 96 96 97 95 94 96 95 94 97 95 88 70
58 48 42 39 38 40 41 46 48 48 48 48 47 48 48 48 46 41 46 50 51 54 57 59 61 72 81 88 96 97 98 96 96 95 93 95 94 96 95 98 94 93 79

GFSGL_prec_cthk_009.txt.gz
RH
27 28 26 27 31 34 37 37 37 37 35 34 33 32 29 24 20 18 16 14 13 14 16 21 29 36 38 34 38 45 53 85 95 79 86 86 77 61 42 34 84 84 65
30 29 26 28 32 38 38 38 39 39 36 34 34 32 28 23 21 19 16 13 13 14 17 28 35 40 39 36 42 50 60 92 95 91 95 84 75 61 48 49 69 78 62
31 30 28 31 36 40 39 40 42 40 37 35 34 32 27 23 21 18 15 13 13 17 25 34 40 44 43 39 44 52 77 94 95 97 96 95 73 59 56 76 88 78 76
35 32 32 35 39 40 40 42 44 41 39 36 36 32 26 23 21 17 14 13 17 22 32 40 43 46 44 40 48 64 88 94 94 98 97 86 74 60 63 68 92 90 78
37 35 34 38 41 41 42 45 45 43 40 38 36 30 26 23 19 16 14 17 22 30 37 41 43 42 42 44 54 74 92 96 95 98 98 95 69 59 47 65 87 92 72
40 39 37 39 43 43 45 48 47 44 41 38 35 31 27 22 18 15 17 23 29 34 39 39 37 36 33 34 49 71 96 95 97 98 98 92 77 59 68 76 82 88 80
42 42 39 41 45 46 48 50 48 45 42 38 34 29 25 20 17 17 20 27 30 34 36 33 33 37 38 39 46 74 95 98 98 99 97 87 78 63 78 87 93 84 94
43 43 41 46 48 48 51 52 49 46 42 39 34 28 24 20 17 18 24 28 29 31 30 32 34 38 39 43 50 85 94 98 98 98 98 82 69 71 84 85 98 98 88
45 45 44 47 50 51 55 53 51 46 43 40 34 27 23 18 19 21 28 32 33 32 31 33 35 37 37 48 59 89 92 96 96 97 92 72 78 79 83 84 98 98 83
48 46 45 50 52 56 56 55 50 47 43 40 31 27 21 20 21 26 31 33 33 29 31 38 37 36 38 50 65 94 92 91 97 98 97 81 76 86 83 77 88 93 92
49 44 48 55 58 58 58 56 51 47 44 36 31 23 20 22 24 31 33 33 30 31 38 39 37 35 42 54 74 94 90 88 94 97 98 89 74 74 78 91 96 94 81
47 48 57 59 59 59 60 55 51 47 41 35 30 22 20 23 30 34 32 30 30 36 39 39 35 35 43 56 82 93 89 87 87 96 98 97 91 83 77 81 90 97 94
52 62 63 62 61 61 58 54 51 46 40 35 29 22 20 27 33 33 34 30 31 37 40 36 30 33 42 54 89 94 90 86 88 91 94 97 95 87 80 80 80 83 82
68 66 64 64 63 61 57 55 51 46 40 35 27 22 23 31 32 32 34 33 33 39 40 33 29 33 42 64 92 97 92 89 88 91 90 96 99 91 85 83 79 84 78
69 68 67 65 62 60 59 55 50 44 41 33 25 24 29 33 32 35 36 34 37 39 38 32 30 33 46 69 90 93 93 87 88 90 93 96 94 85 84 82 69 71 69
72 71 69 67 66 63 60 55 49 48 40 30 26 30 35 35 35 35 33 33 35 36 34 32 32 37 53 73 93 94 93 89 92 92 92 93 92 86 81 78 73 73 70
79 75 73 72 70 65 58 53 51 45 35 30 31 35 38 36 37 37 35 35 34 35 33 31 34 41 55 73 93 97 97 96 94 95 95 93 92 90 87 86 75 72 73
83 77 73 67 65 62 59 56 49 38 32 32 38 40 40 38 38 37 36 36 33 34 33 29 35 43 58 74 92 95 96 98 97 98 92 95 94 93 92 81 73 72 72
75 72 71 69 66 64 58 52 45 38 34 36 42 42 39 37 39 37 39 37 33 32 33 29 36 45 58 75 94 97 97 97 96 93 93 97 98 97 96 88 81 74 71
75 73 73 68 65 62 59 49 46 43 39 42 40 36 36 38 38 38 38 33 32 33 33 33 36 48 58 74 95 98 98 98 99 97 93 94 98 98 98 86 80 77 69
75 68 63 68 69 60 52 53 49 44 41 38 38 39 40 40 39 38 35 34 35 33 33 34 39 50 59 73 95 97 98 98 99 98 96 97 99 98 94 92 86 81 78
71 68 72 63 60 54 56 51 46 40 36 37 40 39 39 38 38 37 35 36 36 34 37 37 40 50 59 72 94 97 97 98 98 99 99 98 98 97 98 90 86 83 83
72 74 63 63 56 59 55 49 40 35 36 40 40 40 38 39 39 38 36 38 38 35 37 36 45 50 60 76 93 95 97 97 98 96 95 98 97 96 98 89 88 88 86
72 66 62 58 62 63 51 40 37 36 39 41 40 38 39 40 40 40 38 41 38 36 39 40 46 48 57 78 91 93 96 98 99 96 95 96 96 98 99 96 92 92 85
63 58 67 72 62 51 46 38 37 40 42 43 41 42 43 43 44 42 40 42 39 41 41 43 44 50 56 79 89 93 97 97 98 95 96 98 94 92 98 97 97 91 83
69 72 72 59 48 48 40 38 40 41 43 44 44 47 46 48 46 43 43 42 43 44 45 47 46 51 56 82 90 97 97 98 98 98 98 94 93 90 95 98 99 96 88

GFSGL_prec_cthk_015.txt.gz
RH
27 26 26 26 28 29 30 31 31 29 30 31 32 33 34 37 38 38 37 34 33 31 27 24 21 21 20 20 24 26 29 32 31 22 30 29 33 43 70 73 74 70 71
29 28 28 29 30 30 32 32 31 29 31 31 33 34 36 38 39 39 38 35 34 30 26 24 22 22 21 25 27 29 31 33 32 28 33 32 42 67 78 78 80 81 70
33 32 31 31 31 32 33 33 32 31 32 34 36 36 38 39 40 40 38 37 34 29 26 24 24 23 25 26 28 30 31 30 34 33 33 36 56 80 82 87 87 86 73
39 35 33 31 36 37 36 35 34 34 36 37 39 38 39 41 42 42 40 38 33 29 27 25 24 25 26 26 27 28 32 36 38 38 41 44 78 90 94 95 92 78 71
41 41 35 36 39 40 38 38 36 37 39 40 40 40 42 44 44 43 41 38 32 30 26 26 24 26 25 26 28 31 35 38 35 42 42 66 86 87 91 97 82 62 63
45 44 41 41 41 39 40 42 39 41 43 40 40 43 46 47 46 45 41 38 33 31 27 25 26 25 21 20 26 31 36 37 44 45 56 86 91 92 96 98 77 63 60
57 48 45 45 41 41 41 43 43 44 45 42 41 45 49 49 48 45 42 39 35 29 27 28 28 23 21 24 26 32 35 37 45 53 80 90 89 96 98 96 73 63 49
64 57 51 47 44 44 46 45 47 46 46 44 43 48 52 51 49 45 43 40 32 28 28 30 27 20 22 23 32 33 34 40 48 79 93 91 95 98 95 83 65 53 48
67 62 56 51 47 47 49 49 50 50 48 47 46 50 54 52 49 46 44 39 32 29 31 28 25 20 21 31 32 32 37 41 71 88 94 95 98 95 74 70 53 47 66
71 65 58 57 49 48 48 51 53 52 49 48 47 53 55 53 49 47 45 39 33 34 30 28 23 22 24 31 32 33 40 52 78 84 95 97 99 89 73 52 52 66 79
72 64 58 54 48 49 50 53 55 54 52 50 49 55 56 52 50 49 44 39 36 37 29 28 22 23 25 26 26 31 39 64 77 82 92 98 95 84 68 66 68 85 79
74 63 54 55 57 57 56 56 59 57 54 50 53 59 56 53 51 49 44 39 42 38 31 29 24 25 27 21 22 28 39 66 76 83 92 97 81 80 73 84 77 80 74
76 67 67 63 64 62 59 60 62 61 55 53 58 60 56 54 52 49 43 43 44 33 31 31 27 26 24 20 21 26 37 67 74 81 91 81 78 79 79 81 84 75 71
81 77 72 67 67 64 63 65 64 59 55 56 63 59 57 55 51 49 46 47 39 32 30 29 26 25 22 20 20 29 37 69 72 77 89 79 77 80 83 75 81 76 86
81 78 81 77 69 67 68 67 65 60 56 59 62 59 59 53 53 51 49 46 37 31 30 28 23 23 22 19 20 27 40 72 71 69 86 85 79 80 80 82 81 82 93
80 77 75 74 72 66 65 64 62 62 61 66 66 64 55 56 57 51 50 45 36 31 31 28 25 24 22 18 20 28 42 71 72 69 79 82 79 86 83 80 87 96 94
75 75 74 71 63 62 62 63 64 65 66 74 70 61 57 57 54 51 50 42 34 31 28 28 25 24 23 21 19 28 40 69 73 72 73 83 78 79 82 84 90 92 91
79 76 73 69 65 64 67 66 70 79 82 70 63 59 59 60 57 55 48 37 33 29 27 26 24 24 25 22 20 28 39 66 73 74 73 76 79 75 79 83 89 91 95
79 77 75 72 74 75 78 84 85 81 69 62 56 64 63 62 65 56 42 36 33 28 26 23 24 25 26 24 24 27 41 67 76 76 78 79 83 81 79 87 81 84 88
91 88 90 92 93 93 89 84 81 72 66 65 72 64 67 65 52 43 38 35 31 28 24 24 25 28 30 29 30 33 40 70 84 80 82 86 86 88 87 88 84 80 86
97 97 96 94 91 89 84 77 69 67 69 64 63 72 60 52 47 41 38 33 31 27 25 26 27 31 30 32 33 38 44 74 87 85 83 87 93 90 89 83 81 81 87
97 96 95 92 85 79 74 69 65 64 61 68 69 58 53 49 46 41 36 33 31 28 27 27 28 32 30 34 34 40 47 74 85 87 91 93 92 97 95 85 77 74 79
95 94 85 75 71 66 61 62 60 61 72 66 54 55 56 46 40 37 34 34 32 31 30 30 32 34 32 34 34 40 50 78 85 89 91 94 98 99 98 93 82 76 72
93 87 82 74 67 70 72 69 72 75 67 64 58 54 46 38 36 37 36 34 33 33 32 32 35 36 34 34 34 40 54 84 90 91 91 94 95 96 96 94 87 80 76
88 84 78 75 69 71 78 85 73 66 62 62 54 42 36 37 37 37 36 34 36 35 34 35 37 40 39 36 36 43 59 89 95 93 94 97 97 97 91 88 86 86 80
86 75 68 68 73 77 74 65 62 61 55 49 40 37 37 36 36 36 37 40 37 36 41 43 46 45 43 42 44 48 67 93 96 97 96 97 97 96 97 92 91 82 76

GFSGL_prec_cthk_021.txt.gz
RH
61 51 49 47 45 45 43 41 39 36 35 34 33 29 31 31 31 31 29 30 31 32 36 38 39 38 36 33 31 30 31 33 36 34 32 29 26 25 29 32 32 31 28
71 66 64 62 55 51 49 44 44 41 39 37 33 34 33 32 33 32 32 33 32 33 38 41 41 39 37 34 33 34 36 38 37 32 30 27 26 24 28 29 29 35 36
74 72 70 69 63 55 53 48 47 44 42 38 36 36 34 35 36 33 34 33 33 37 40 42 42 40 37 34 36 37 39 37 32 32 28 27 25 29 32 36 38 38 51
75 79 78 74 73 62 60 54 51 47 44 42 40 38 38 39 37 33 34 36 37 39 42 43 42 40 37 36 38 38 37 36 31 29 27 25 31 37 47 58 67 72 71
66 83 86 83 77 72 66 59 55 50 48 47 43 42 41 40 36 36 38 39 38 41 44 44 43 40 39 39 38 38 36 29 27 26 27 27 35 47 65 77 79 78 79
73 84 91 90 87 80 71 64 59 54 51 48 48 46 43 42 39 39 40 39 39 43 46 46 44 41 42 42 41 40 34 29 30 29 29 31 39 57 70 80 87 92 89
80 85 95 91 91 91 83 69 62 56 53 52 52 49 47 45 42 41 40 38 40 46 47 47 45 43 45 40 42 38 29 32 30 30 29 36 48 65 74 81 89 95 96
79 84 90 93 91 93 90 77 68 60 55 53 55 52 50 48 43 41 40 41 45 48 50 48 46 44 42 44 42 35 25 27 28 28 30 39 58 69 80 88 96 98 94
81 69 83 87 82 92 92 88 75 67 58 54 55 53 51 49 44 42 44 45 45 50 50 50 47 45 45 45 43 32 24 24 25 27 26 50 68 78 93 97 96 87 82
68 54 69 83 81 83 92 93 84 75 61 58 56 54 53 50 46 46 48 48 48 50 52 50 47 46 46 44 39 29 24 21 21 17 33 63 74 86 97 99 85 85 84
54 57 63 68 72 76 91 95 88 77 68 63 60 57 55 51 49 48 50 50 50 52 53 52 53 54 48 44 34 27 22 21 17 22 48 66 79 91 89 79 98 77 86
47 56 61 57 64 69 87 93 89 78 68 65 62 60 54 55 52 52 52 50 51 53 53 52 56 55 51 43 31 22 20 18 22 26 58 71 87 91 76 89 90 83 95
46 60 56 55 63 68 83 93 92 73 69 67 62 59 61 59 59 56 55 50 49 50 52 54 54 55 49 39 30 22 18 24 21 33 63 76 86 79 81 90 90 92 95
54 65 56 60 72 75 80 86 93 76 70 67 62 62 63 63 61 58 56 51 49 50 52 54 57 54 45 40 28 20 20 22 21 38 65 79 73 79 86 94 94 94 99
72 74 61 70 79 79 85 92 94 81 73 68 64 65 65 63 62 60 56 55 53 57 61 66 63 53 50 42 30 20 20 23 20 35 61 78 76 78 84 98 94 96 95
85 81 75 84 88 86 95 96 95 85 76 71 72 68 61 58 62 62 58 55 54 62 73 66 58 50 49 40 29 20 20 23 20 32 57 74 76 82 84 92 90 97 98
95 92 96 94 94 96 93 92 92 88 79 74 70 62 59 59 64 61 59 56 58 68 68 63 57 53 46 38 27 20 20 23 21 28 53 71 68 77 83 90 92 98 94
97 97 93 97 96 95 86 97 95 90 80 70 62 60 58 61 62 65 65 62 69 72 66 61 56 49 40 30 23 23 21 21 24 27 48 69 67 70 76 82 86 88 95
98 98 97 97 97 94 93 90 91 85 76 67 64 67 69 69 68 66 66 73 77 70 63 57 53 43 33 25 24 23 23 23 28 28 46 66 71 69 75 80 83 83 87
97 98 98 98 98 96 90 84 79 75 74 71 76 74 72 70 70 67 70 71 70 68 61 54 46 39 29 25 24 25 28 28 30 30 44 62 71 68 72 75 81 84 85
97 97 97 97 98 97 89 83 81 82 80 78 73 70 69 73 75 80 76 74 68 60 54 49 43 33 28 25 24 25 28 28 29 31 43 61 71 73 71 74 77 80 83
98 98 97 97 97 97 94 92 86 83 82 77 79 79 81 82 79 74 74 66 61 57 54 46 38 32 31 29 28 29 30 30 29 32 38 61 65 73 71 77 77 76 81
97 97 97 97 97 97 96 95 93 93 89 85 87 82 77 78 77 70 64 60 58 53 46 39 34 32 31 31 31 32 31 30 29 29 34 58 64 72 74 74 77 76 80
98 98 98 98 97 96 93 93 91 86 83 79 73 73 72 66 61 61 63 60 55 45 38 36 31 30 28 31 33 33 34 30 29 30 31 57 67 72 74 77 80 80 83
98 98 98 96 92 88 85 81 78 75 76 76 74 68 63 64 63 60 61 54 41 37 36 34 31 30 32 36 37 35 34 34 31 31 33 55 72 75 76 77 80 80 83
97 96 94 91 89 86 81 81 84 81 77 76 71 69 67 63 58 49 38 37 34 35 36 34 33 35 36 36 35 36 34 32 33 34 34 55 81 83 79 79 81 83 81

GFSGL_prec_cthk_024.txt.gz
RH
40 40 52 57 65 60 53 53 54 52 47 47 42 42 43 41 39 36 32 30 31 29 27 28 28 29 32 37 36 35 34 32 32 31 32 31 30 28 25 21 19 21 24
53 57 47 66 76 75 68 64 64 59 56 54 46 43 46 44 42 39 33 32 33 29 29 30 30 31 36 37 36 35 34 34 35 34 34 32 30 26 21 19 20 26 29
61 61 60 64 85 87 84 83 74 68 65 61 53 46 47 45 44 42 35 36 33 30 31 33 30 33 39 40 39 38 37 37 35 36 35 31 27 23 19 20 26 33 42
60 62 71 74 76 93 87 85 87 83 78 70 59 55 52 49 47 44 39 38 34 33 34 33 33 38 42 42 40 39 39 36 36 37 34 28 25 20 20 22 31 44 52
51 57 68 79 77 86 92 88 91 86 82 77 69 61 57 54 51 43 43 41 38 37 35 36 38 41 44 43 42 40 37 36 36 36 30 27 26 22 24 32 44 54 59
51 50 57 79 86 82 95 91 91 90 85 79 70 65 61 58 51 48 47 46 40 38 39 39 40 44 47 46 44 43 39 40 41 37 34 31 26 25 32 47 58 68 70
49 45 50 74 86 84 87 92 94 93 88 82 74 70 65 61 54 52 52 47 40 42 41 39 42 46 49 48 46 41 42 42 39 37 34 27 26 29 42 54 70 85 88
52 47 52 71 80 80 91 93 96 96 90 84 75 70 66 63 60 57 54 47 45 43 40 41 46 50 50 48 44 40 40 39 33 29 26 26 24 33 56 71 83 87 93
46 48 58 61 68 71 95 93 95 97 92 86 77 72 68 64 64 61 56 48 45 43 43 47 51 52 48 46 43 40 40 35 29 22 16 15 27 55 74 80 84 93 97
44 50 49 50 57 64 89 88 93 96 95 89 80 74 68 68 66 62 57 49 46 45 49 50 52 51 48 46 46 42 41 31 24 14 15 19 50 65 77 77 89 98 99
45 50 48 50 54 62 76 82 86 94 97 90 82 74 69 70 67 64 54 49 46 48 52 52 53 54 49 50 48 45 39 29 19 19 18 35 57 71 69 80 96 98 99
45 47 48 48 53 68 70 79 81 89 96 92 82 74 72 74 68 61 53 48 50 52 53 53 56 54 53 55 51 45 36 26 18 19 19 44 64 69 76 82 92 99 97
43 43 48 47 58 65 64 78 73 92 98 96 84 74 71 72 67 62 52 50 54 55 55 55 54 54 56 58 51 44 29 21 18 19 21 48 61 65 83 88 94 98 99
41 45 48 52 65 63 67 76 82 95 98 96 84 75 71 70 66 61 54 54 56 56 54 53 53 54 57 61 52 41 27 20 19 19 22 49 59 68 86 91 98 98 97
44 47 52 61 65 65 70 81 85 98 98 96 83 74 70 70 67 64 58 58 56 56 54 52 57 62 70 63 49 39 23 18 20 17 21 48 61 67 85 89 97 98 97
49 58 57 67 67 66 75 86 94 98 98 94 87 81 77 76 73 69 61 60 58 60 59 59 64 70 69 57 47 33 19 18 20 17 20 47 63 66 84 88 94 98 98
58 62 71 77 69 68 81 92 97 98 97 91 84 81 78 76 71 66 63 60 64 71 59 58 68 71 64 54 43 27 17 17 19 19 25 43 64 66 83 87 95 98 99
68 88 95 75 71 76 87 97 96 96 96 85 81 81 78 73 71 65 61 59 69 71 62 65 72 67 59 50 35 24 16 18 24 28 26 38 62 66 83 87 84 96 98
94 96 93 88 87 91 97 96 93 94 92 87 84 79 73 70 68 63 58 64 69 66 67 75 70 62 53 46 28 21 19 22 28 26 28 36 58 63 75 89 86 90 96
98 97 97 97 95 97 98 98 98 97 92 87 85 80 74 70 66 60 69 72 74 73 74 70 64 58 51 37 23 21 23 23 28 26 28 35 55 67 69 88 90 83 92
97 98 98 98 98 97 97 97 97 96 94 90 84 80 74 68 67 73 75 73 74 74 71 67 59 54 46 32 21 23 27 22 27 24 22 33 53 62 68 82 85 85 92
97 98 98 97 97 97 97 97 97 94 96 93 88 87 82 78 74 76 76 76 76 75 73 60 56 52 41 31 23 26 29 26 23 22 23 25 47 56 65 74 81 84 87
97 98 98 98 97 97 97 97 96 94 90 88 85 80 79 81 83 81 78 75 74 68 57 56 50 44 40 34 31 29 31 29 23 23 23 21 30 51 61 67 76 80 85
98 97 98 98 98 98 98 97 97 96 96 96 92 90 89 86 82 84 81 73 64 57 55 48 44 39 38 33 31 31 31 32 29 22 23 23 23 41 57 67 72 79 84
98 98 98 98 98 97 97 96 96 96 94 93 90 85 81 79 77 69 63 61 59 54 49 43 43 35 31 31 32 32 30 30 29 27 22 24 23 32 57 67 72 77 83
97 97 97 97 96 96 95 93 89 90 88 86 84 83 77 69 61 59 60 59 53 40 36 39 34 32 34 33 32 30 29 30 29 29 25 26 26 29 58 66 74 78 83

GFSGL_prec_cthk_027.txt.gz
RH
27 33 34 37 39 35 36 37 48 60 60 60 60 58 55 52 52 48 47 47 42 39 37 32 32 31 26 24 27 29 32 34 35 34 33 32 33 32 30 29 26 25 23
32 36 33 38 45 48 46 43 46 76 77 71 67 70 64 56 53 52 52 50 45 43 41 36 35 32 27 27 29 32 33 35 34 34 35 35 34 31 32 29 26 24 21
29 32 36 37 46 51 50 55 60 63 71 72 85 80 72 61 57 59 57 54 50 48 44 39 38 31 28 30 31 34 38 38 37 36 37 37 34 31 29 25 24 19 17
29 33 38 39 44 47 53 67 82 72 76 80 91 94 80 66 65 62 61 58 54 51 47 41 38 31 31 32 34 38 41 39 38 38 38 37 32 30 29 27 20 14 18
35 35 42 44 42 44 47 74 94 83 87 86 95 95 88 77 75 66 63 61 58 54 50 45 37 34 35 34 38 43 41 39 40 41 39 34 32 30 28 21 18 22 33
37 42 44 47 46 45 52 80 88 85 87 90 97 96 94 83 78 73 68 65 61 57 51 44 38 38 36 39 44 45 41 39 42 42 38 35 34 28 24 19 27 39 45
39 42 43 44 44 49 66 85 76 73 87 92 98 97 95 92 87 81 72 70 63 58 50 43 41 39 40 43 47 48 47 46 45 40 37 35 31 25 20 26 42 58 68
39 38 36 39 43 56 57 58 62 68 84 94 98 97 94 95 90 83 79 74 65 58 49 45 42 42 43 46 50 48 46 45 41 36 36 32 24 17 25 49 61 70 80
44 35 37 39 41 48 49 49 61 71 86 96 98 98 93 94 89 86 82 71 64 54 50 45 44 44 45 51 53 49 46 42 37 34 30 21 16 20 48 61 75 83 85
48 42 39 35 39 44 47 48 61 69 85 93 99 98 95 93 90 88 81 69 59 55 49 48 46 47 51 54 50 49 45 40 37 31 21 14 16 41 60 75 82 94 99
56 48 44 37 39 41 46 49 62 73 86 94 98 98 95 93 91 87 75 64 60 53 51 48 50 54 54 53 54 51 45 44 38 26 16 13 24 52 62 80 93 98 98
63 54 49 41 38 40 46 52 65 75 89 95 98 98 94 92 90 83 71 67 58 55 51 51 55 56 56 55 55 50 48 46 34 20 14 13 35 53 70 83 97 99 98
58 56 49 41 37 39 50 56 69 80 94 96 98 98 95 91 89 81 74 66 59 54 52 54 57 57 58 55 56 54 53 41 28 17 15 15 43 62 84 90 96 97 99
53 48 42 37 38 43 53 60 69 80 94 96 98 97 96 91 87 78 72 65 59 56 57 58 59 59 57 53 57 59 53 39 24 15 14 20 49 68 85 89 96 98 99
56 50 45 42 42 49 53 60 71 85 95 96 97 97 95 90 81 77 70 62 59 58 58 59 58 58 54 61 63 58 48 34 17 13 15 25 53 71 83 87 95 98 98
53 48 44 44 52 54 54 61 73 92 97 99 98 95 96 88 83 78 71 60 59 59 57 57 61 58 62 64 61 54 43 27 15 14 18 28 55 72 83 90 93 98 97
51 48 49 56 60 60 63 64 78 96 98 98 98 96 93 87 84 77 68 61 60 58 57 71 65 62 63 66 58 48 38 18 17 18 20 27 53 69 81 85 91 97 97
56 60 67 73 71 66 67 72 91 98 98 98 98 95 92 93 84 76 68 64 65 62 70 77 67 66 67 66 56 42 33 19 19 21 23 28 52 64 81 85 91 95 94
88 95 91 82 71 65 68 84 97 97 97 98 97 94 93 92 82 77 71 66 64 69 76 71 71 71 70 61 47 41 26 21 21 20 24 30 51 63 75 79 89 94 94
97 93 82 76 71 68 75 93 95 98 98 98 97 93 89 84 79 76 73 68 69 72 72 71 76 73 64 53 44 34 22 23 21 18 22 30 50 62 74 80 86 90 92
98 97 96 88 81 79 88 96 98 98 97 97 97 94 88 82 78 73 70 74 79 77 74 77 72 64 60 54 38 28 22 23 21 18 17 25 46 56 79 83 81 85 91
97 97 96 92 91 94 97 98 98 98 97 96 95 92 85 78 73 78 86 84 80 78 83 73 66 60 60 48 34 26 23 23 22 19 17 17 33 50 64 80 81 79 84
98 98 97 97 98 97 98 98 98 97 97 94 90 86 82 80 85 86 83 83 83 84 79 73 68 62 54 42 33 29 25 24 24 23 19 16 14 36 52 71 78 78 86
98 98 98 98 97 97 97 98 98 98 98 97 97 96 95 93 89 88 89 85 82 78 74 70 65 55 43 35 33 31 28 29 25 24 23 18 15 16 41 56 69 81 87
97 98 98 98 97 97 97 97 97 97 96 96 96 95 93 95 94 89 88 83 77 71 68 60 49 41 36 37 34 31 24 24 26 25 23 21 20 18 23 48 58 64 82
97 97 97 98 97 97 97 97 97 97 97 97 96 95 91 87 88 88 83 80 71 63 58 53 43 39 39 35 31 30 29 26 24 25 25 24 22 22 21 33 51 61 71

GFSGL_prec_cthk_030.txt.gz
RH
24 25 24 20 20 22 22 22 30 33 31 34 35 46 45 50 57 60 60 58 60 52 49 51 46 41 36 34 35 32 26 23 24 30 33 34 34 33 33 35 34 30 28
38 35 31 26 25 26 26 28 32 37 38 42 45 45 58 57 68 70 65 67 63 55 55 54 51 47 41 39 37 33 27 25 27 33 35 35 36 34 36 37 33 29 28
43 37 35 31 28 28 32 33 34 36 40 47 58 55 53 72 82 80 76 72 70 60 61 58 56 51 45 43 40 34 28 27 31 34 36 38 37 37 38 35 33 31 32
43 41 39 35 30 31 36 38 40 37 41 54 63 61 53 51 79 93 91 83 67 63 66 63 59 53 47 46 41 33 29 31 34 36 38 39 40 41 38 35 34 33 26
49 48 46 42 33 34 38 42 41 45 51 61 69 72 64 68 64 81 88 89 71 69 70 67 61 54 51 47 39 32 31 34 37 39 41 41 42 41 37 37 34 25 17
48 49 48 45 37 35 33 38 44 47 52 71 72 60 56 74 71 74 80 81 82 76 72 70 64 57 53 47 37 33 34 38 41 42 43 45 43 38 38 36 25 21 25
59 52 52 50 46 38 36 38 40 43 45 47 52 56 67 85 89 92 98 92 88 78 73 73 65 59 54 44 36 36 39 42 46 44 44 45 42 39 36 27 20 30 41
59 58 60 57 49 46 39 31 34 41 41 42 54 64 72 89 97 98 98 94 88 83 74 75 65 61 52 38 38 42 46 48 47 47 48 43 41 34 25 21 34 45 55
61 63 65 63 57 50 43 34 35 39 39 46 60 64 85 95 98 99 98 96 92 85 80 73 64 59 42 40 42 44 46 48 47 48 44 43 35 24 20 38 47 57 67
66 69 69 66 67 56 49 38 36 35 38 55 68 83 90 98 98 98 98 97 94 87 79 71 64 50 42 46 45 45 49 48 50 46 45 35 24 17 25 51 61 77 84
82 74 70 65 67 60 48 41 35 32 42 64 81 88 95 98 98 98 98 97 97 90 76 69 57 45 51 49 47 49 52 53 49 48 40 27 17 12 43 60 85 89 95
89 73 69 64 59 56 47 37 32 35 50 70 87 96 98 98 98 98 98 97 98 84 78 64 50 54 53 51 50 55 56 52 54 46 31 19 9 31 51 77 91 98 99
94 77 59 64 57 50 44 37 35 41 61 74 92 98 98 98 98 99 97 97 95 83 69 56 58 56 55 53 55 57 54 56 53 36 25 11 18 46 64 82 96 99 98
88 72 66 61 55 49 43 40 39 50 65 82 96 98 98 98 98 98 97 96 86 74 61 62 58 58 55 55 57 55 61 58 43 32 15 12 30 55 75 92 98 99 99
72 67 67 61 52 45 40 37 47 65 69 90 98 98 98 98 98 97 97 87 77 66 64 60 61 56 55 56 58 64 61 49 37 23 14 19 40 62 85 94 99 98 96
61 62 60 55 47 43 39 43 63 64 77 95 98 98 98 98 97 97 92 84 70 69 61 61 59 57 56 61 65 66 56 41 33 19 18 24 47 72 89 92 96 96 81
55 53 51 49 48 44 47 61 62 67 90 98 98 98 98 98 97 96 90 76 73 64 63 61 60 62 63 66 67 64 49 39 27 19 21 29 51 78 88 92 95 92 79
69 63 60 58 58 57 64 62 71 88 98 98 98 98 98 98 97 95 84 74 71 65 61 65 79 66 68 67 67 58 45 38 19 19 25 33 52 75 91 90 95 93 86
95 93 85 80 72 67 62 69 81 95 98 98 97 98 98 97 97 92 80 69 68 66 66 83 71 68 69 68 64 52 42 28 18 20 25 35 51 69 87 94 97 95 93
92 86 79 75 70 67 68 78 91 97 98 98 98 97 96 97 96 89 74 67 66 66 79 72 69 73 73 68 58 46 40 20 19 18 23 34 51 66 84 95 97 95 95
92 87 84 79 76 75 81 92 97 98 98 99 98 98 97 94 89 81 72 71 68 75 75 71 76 76 69 62 51 44 30 20 19 16 16 28 46 63 82 94 94 98 95
95 85 81 80 80 87 97 98 98 98 98 97 95 96 98 91 88 81 74 69 78 86 79 78 77 69 65 59 50 39 26 20 20 18 16 16 38 56 81 93 92 94 96
97 89 84 79 84 96 98 98 98 98 98 98 97 96 93 87 82 76 78 85 87 82 80 77 70 64 62 56 45 36 25 22 21 19 17 14 17 41 66 87 90 95 94
92 92 88 89 96 97 98 98 98 97 97 96 93 89 82 76 82 88 86 85 85 84 78 74 71 64 57 50 43 36 28 25 22 20 18 16 11 19 45 66 83 81 91
98 98 98 97 97 98 98 98 97 97 97 95 93 91 89 89 91 90 90 89 83 76 75 74 66 60 52 45 39 35 33 26 23 19 19 20 20 14 23 49 62 82 88
93 94 96 97 97 97 97 97 97 97 97 97 96 96 96 96 95 94 90 83 78 78 74 70 63 50 41 37 34 29 24 21 19 19 21 21 21 20 19 24 49 59 76